When you browse on this site, cookies collect data to enhance your experience and personalize the content and advertising you see.
Visit our Privacy Policy to learn more. By continuing to use the site, you agree to this use of cookies and data.
  • In Austria
  • List of Countries
  • For 7 days
  • Water Temperature
  • Satellite Maps
  • Weather Map
  • News
  • Weather Widgets
  • user-avatar
    Login

    Hourly Weather Podgorodnee

    Today, 18 February, Monday

    Time Temperature Precipitation Wind Pressure Humidity
    00:00 -5°C° 0 mm 4 mps 743 mmHg 83%
    01:00 -7°C° 0 mm 4 mps 744 mmHg 84%
    02:00 -6°C° 0 mm 3 mps 745 mmHg 86%
    03:00 -7°C° 0 mm 3 mps 745 mmHg 87%
    04:00 -7°C° 0 mm 3 mps 746 mmHg 89%
    05:00 -7°C° 0 mm 3 mps 746 mmHg 90%
    06:00 -6°C° 0 mm 2 mps 747 mmHg 90%
    07:00 -7°C° 0 mm 2 mps 747 mmHg 91%
    08:00 -7°C° 0 mm 2 mps 748 mmHg 91%
    09:00 -6°C° 0 mm 2 mps 748 mmHg 88%
    10:00 -5°C° 0 mm 2 mps 748 mmHg 84%
    11:00 -4°C° 0 mm 2 mps 749 mmHg 80%
    12:00 -4°C° 0 mm 2 mps 749 mmHg 78%
    13:00 -3°C° 0 mm 2 mps 749 mmHg 75%
    14:00 -1°C° 0 mm 1 mps 749 mmHg 72%
    15:00 -2°C° 0 mm 1 mps 749 mmHg 75%
    16:00 -3°C° 0 mm 1 mps 749 mmHg 79%
    17:00 -4°C° 0 mm 1 mps 749 mmHg 83%
    18:00 -4°C° 0 mm 1 mps 749 mmHg 84%
    19:00 -4°C° 0 mm 1 mps 749 mmHg 84%
    20:00 -4°C° 0 mm 1 mps 749 mmHg 85%
    21:00 -6°C° 0 mm 2 mps 748 mmHg 85%
    22:00 -6°C° 0 mm 2 mps 748 mmHg 85%
    23:00 -7°C° 0 mm 3 mps 748 mmHg 85%

    Tomorrow, 19 February, Tuesday

    Time Temperature Precipitation Wind Pressure Humidity
    00:00 -7°C° 0 mm 3 mps 747 mmHg 83%
    01:00 -7°C° 0 mm 3 mps 747 mmHg 82%
    02:00 -7°C° 0 mm 4 mps 747 mmHg 80%
    03:00 -7°C° 0 mm 4 mps 746 mmHg 79%
    04:00 -7°C° 0 mm 4 mps 745 mmHg 78%
    05:00 -7°C° 0 mm 4 mps 745 mmHg 77%
    06:00 -7°C° 0 mm 4 mps 744 mmHg 78%
    07:00 -5°C° 0 mm 4 mps 744 mmHg 79%
    08:00 -5°C° 0 mm 4 mps 744 mmHg 80%
    09:00 -5°C° 0 mm 5 mps 743 mmHg 79%
    10:00 -4°C° 0 mm 5 mps 743 mmHg 78%
    11:00 -1°C° 0 mm 5 mps 742 mmHg 78%
    12:00 -1°C° 0 mm 5 mps 742 mmHg 78%
    13:00 -1°C° 0 mm 5 mps 741 mmHg 79%
    14:00 0°C° 0 mm 5 mps 741 mmHg 79%
    15:00 -1°C° 0 mm 5 mps 740 mmHg 81%
    16:00 -1°C° 0 mm 5 mps 739 mmHg 83%
    17:00 -2°C° 0 mm 4 mps 739 mmHg 85%
    18:00 -2°C° 0 mm 5 mps 738 mmHg 86%
    19:00 -2°C° 0 mm 5 mps 738 mmHg 87%
    20:00 -2°C° 0 mm 5 mps 737 mmHg 89%
    21:00 -1°C° 0 mm 5 mps 736 mmHg 89%
    22:00 -1°C° 0 mm 5 mps 736 mmHg 90%
    23:00 -1°C° 0 mm 5 mps 735 mmHg 91%

    Day after tomorrow, 20 February, Wednesday

    Time Temperature Precipitation Wind Pressure Humidity
    00:00 -1°C° 0 mm 5 mps 734 mmHg 91%
    01:00 -1°C° 0 mm 5 mps 734 mmHg 91%
    02:00 0°C° 0 mm 5 mps 733 mmHg 91%
    03:00 0°C° 0.3 mm 5 mps 733 mmHg 92%
    04:00 0°C° 0.3 mm 5 mps 732 mmHg 92%
    05:00 0°C° 0.3 mm 5 mps 732 mmHg 92%
    06:00 0°C° 0.1 mm 5 mps 732 mmHg 92%
    07:00 0°C° 0.1 mm 5 mps 732 mmHg 93%
    08:00 0°C° 0.1 mm 5 mps 732 mmHg 93%
    09:00 0°C° 0.1 mm 5 mps 732 mmHg 91%
    10:00 0°C° 0.1 mm 5 mps 732 mmHg 89%
    11:00 0°C° 0.1 mm 5 mps 732 mmHg 87%
    12:00 0°C° 0.1 mm 5 mps 732 mmHg 86%
    13:00 0°C° 0.1 mm 5 mps 732 mmHg 86%
    14:00 +1°C° 0.1 mm 5 mps 731 mmHg 85%
    15:00 0°C° 0.3 mm 5 mps 731 mmHg 86%
    16:00 0°C° 0.3 mm 5 mps 731 mmHg 86%
    17:00 0°C° 0.3 mm 5 mps 731 mmHg 86%
    18:00 -1°C° 0.3 mm 5 mps 731 mmHg 82%
    19:00 -2°C° 0.3 mm 6 mps 731 mmHg 78%
    20:00 -3°C° 0.3 mm 6 mps 731 mmHg 73%
    21:00 -4°C° 0 mm 6 mps 731 mmHg 76%
    22:00 -5°C° 0 mm 5 mps 731 mmHg 78%
    23:00 -6°C° 0 mm 5 mps 731 mmHg 81%

    21 February, Thursday

    Time Temperature Precipitation Wind Pressure Humidity
    00:00 -6°C° 0.3 mm 5 mps 731 mmHg 82%
    01:00 -6°C° 0.3 mm 6 mps 732 mmHg 83%
    02:00 -5°C° 0.3 mm 6 mps 732 mmHg 84%
    03:00 -6°C° 0.2 mm 6 mps 732 mmHg 82%
    04:00 -6°C° 0.2 mm 6 mps 733 mmHg 81%
    05:00 -6°C° 0.2 mm 6 mps 733 mmHg 79%
    06:00 -6°C° 0.1 mm 6 mps 733 mmHg 78%
    07:00 -8°C° 0.1 mm 7 mps 734 mmHg 76%
    08:00 -8°C° 0.1 mm 7 mps 734 mmHg 74%
    09:00 -8°C° 0.1 mm 7 mps 735 mmHg 74%
    10:00 -8°C° 0.1 mm 7 mps 736 mmHg 74%
    11:00 -9°C° 0.1 mm 7 mps 737 mmHg 74%
    12:00 -8°C° 0.1 mm 7 mps 737 mmHg 73%
    13:00 -8°C° 0.1 mm 7 mps 738 mmHg 71%
    14:00 -8°C° 0.1 mm 7 mps 739 mmHg 70%
    15:00 -9°C° 0 mm 7 mps 740 mmHg 71%
    16:00 -9°C° 0 mm 6 mps 741 mmHg 72%
    17:00 -9°C° 0 mm 6 mps 742 mmHg 74%
    18:00 -10°C° 0 mm 6 mps 743 mmHg 74%
    19:00 -11°C° 0 mm 6 mps 743 mmHg 74%
    20:00 -11°C° 0 mm 5 mps 744 mmHg 73%
    21:00 -12°C° 0 mm 5 mps 745 mmHg 74%
    22:00 -12°C° 0 mm 5 mps 746 mmHg 74%
    23:00 -12°C° 0 mm 5 mps 747 mmHg 74%

    22 February, Friday

    Time Temperature Precipitation Wind Pressure Humidity
    00:00 -13°C° 0 mm 5 mps 748 mmHg 75%
    01:00 -13°C° 0 mm 5 mps 748 mmHg 75%
    02:00 -13°C° 0 mm 5 mps 749 mmHg 75%
    03:00 -14°C° 0 mm 5 mps 750 mmHg 76%
    04:00 -14°C° 0 mm 4 mps 750 mmHg 76%
    05:00 -14°C° 0 mm 4 mps 751 mmHg 76%
    06:00 -14°C° 0 mm 4 mps 752 mmHg 76%
    07:00 -14°C° 0 mm 4 mps 752 mmHg 76%
    08:00 -14°C° 0 mm 4 mps 753 mmHg 76%
    09:00 -13°C° 0 mm 5 mps 754 mmHg 73%
    10:00 -12°C° 0 mm 5 mps 754 mmHg 70%
    11:00 -11°C° 0 mm 5 mps 755 mmHg 67%
    12:00 -11°C° 0 mm 5 mps 755 mmHg 66%
    13:00 -10°C° 0 mm 5 mps 755 mmHg 64%
    14:00 -10°C° 0 mm 5 mps 756 mmHg 63%
    15:00 -10°C° 0 mm 5 mps 756 mmHg 67%
    16:00 -10°C° 0 mm 4 mps 756 mmHg 70%
    17:00 -11°C° 0 mm 4 mps 757 mmHg 74%
    18:00 -11°C° 0 mm 4 mps 757 mmHg 76%
    19:00 -11°C° 0 mm 4 mps 758 mmHg 78%
    20:00 -11°C° 0 mm 4 mps 758 mmHg 80%
    21:00 -12°C° 0 mm 4 mps 759 mmHg 83%
    22:00 -12°C° 0 mm 3 mps 759 mmHg 85%
    23:00 -12°C° 0 mm 3 mps 759 mmHg 87%

    23 February, Saturday

    Time Temperature Precipitation Wind Pressure Humidity
    00:00 -10°C° 0 mm 2 mps 759 mmHg 88%
    01:00 -12°C° 0 mm 2 mps 759 mmHg 90%
    02:00 -10°C° 0 mm 1 mps 759 mmHg 91%
    03:00 -10°C° 0 mm 1 mps 759 mmHg 88%
    04:00 -9°C° 0 mm 1 mps 759 mmHg 86%
    05:00 -9°C° 0 mm 1 mps 758 mmHg 84%
    06:00 -9°C° 0 mm 2 mps 758 mmHg 79%
    07:00 -9°C° 0 mm 2 mps 758 mmHg 74%
    08:00 -9°C° 0 mm 3 mps 757 mmHg 69%
    09:00 -8°C° 0.1 mm 3 mps 757 mmHg 71%
    10:00 -9°C° 0.1 mm 4 mps 756 mmHg 73%
    11:00 -9°C° 0.1 mm 4 mps 756 mmHg 75%
    12:00 -9°C° 0.3 mm 4 mps 755 mmHg 80%
    13:00 -8°C° 0.3 mm 4 mps 754 mmHg 84%
    14:00 -8°C° 0.3 mm 4 mps 754 mmHg 89%
    15:00 -8°C° 0.3 mm 4 mps 753 mmHg 89%
    16:00 -8°C° 0.3 mm 4 mps 753 mmHg 89%
    17:00 -8°C° 0.3 mm 4 mps 753 mmHg 89%
    18:00 -6°C° 0.1 mm 3 mps 753 mmHg 90%
    19:00 -6°C° 0.1 mm 3 mps 752 mmHg 91%
    20:00 -6°C° 0.1 mm 3 mps 752 mmHg 92%
    21:00 -6°C° 0 mm 3 mps 752 mmHg 93%
    22:00 -6°C° 0 mm 3 mps 752 mmHg 93%
    23:00 -5°C° 0 mm 3 mps 751 mmHg 93%
    Show more